TimeMST,TemperatureF,Dew PointF,Humidity,Sea Level PressureIn,VisibilityMPH,Wind Direction,Wind SpeedMPH,Gust SpeedMPH,PrecipitationIn,Events,Conditions,WindDirDegrees,DateUTC
12:52 AM,37.0,28.0,70,29.97,10.0,Calm,Calm,-,N/A,,Overcast,0,2012-11-25 07:52:00
1:52 AM,37.0,30.0,76,29.97,10.0,Calm,Calm,-,0.00,,Overcast,0,2012-11-25 08:52:00
2:52 AM,39.0,35.1,86,29.97,10.0,NNE,8.1,-,0.00,,Overcast,20,2012-11-25 09:52:00
3:52 AM,37.9,35.1,89,29.99,10.0,Calm,Calm,-,0.00,Rain,Light Rain,0,2012-11-25 10:52:00
4:52 AM,37.0,35.1,93,30.00,10.0,East,3.5,-,0.01,,Overcast,90,2012-11-25 11:52:00
5:52 AM,37.0,34.0,89,30.03,10.0,Calm,Calm,-,0.01,Rain,Light Rain,0,2012-11-25 12:52:00
6:06 AM,37.4,33.8,87,29.98,10.0,NNE,3.5,-,0.00,Rain,Light Rain,30,2012-11-25 13:06:00
6:29 AM,35.6,33.8,93,29.97,10.0,NE,5.8,-,0.01,Rain,Light Rain,50,2012-11-25 13:29:00
6:41 AM,35.6,33.8,93,29.98,10.0,NE,4.6,-,0.01,Rain,Light Rain,50,2012-11-25 13:41:00
6:52 AM,35.1,33.1,92,30.02,10.0,NE,5.8,-,0.01,Rain,Light Rain,50,2012-11-25 13:52:00
6:59 AM,35.6,33.8,93,29.98,10.0,ENE,5.8,-,0.01,,Overcast,60,2012-11-25 13:59:00
7:08 AM,33.8,32.0,93,29.98,10.0,ENE,6.9,-,0.01,Rain,Light Rain,60,2012-11-25 14:08:00
7:27 AM,33.8,30.2,87,29.98,2.5,East,6.9,-,0.02,Snow,Light Snow,90,2012-11-25 14:27:00
7:39 AM,33.8,30.2,87,29.98,3.0,East,8.1,-,0.03,Snow,Light Snow,90,2012-11-25 14:39:00
7:52 AM,33.1,32.0,96,30.05,5.0,East,6.9,-,0.04,Snow,Light Snow,90,2012-11-25 14:52:00
8:06 AM,33.8,30.2,87,29.98,10.0,East,5.8,-,0.00,,Overcast,100,2012-11-25 15:06:00
8:52 AM,33.1,32.0,96,30.04,4.0,Calm,Calm,-,0.01,Snow,Light Snow,0,2012-11-25 15:52:00
9:02 AM,33.8,32.0,93,29.99,2.5,Calm,Calm,-,0.01,Snow,Light Snow,0,2012-11-25 16:02:00
9:11 AM,33.8,32.0,93,30.00,4.0,NE,3.5,-,0.01,Snow,Light Snow,50,2012-11-25 16:11:00
9:18 AM,33.8,32.0,93,30.00,3.0,NE,3.5,-,0.01,Snow,Light Snow,50,2012-11-25 16:18:00
9:23 AM,33.8,32.0,93,30.00,1.8,ENE,3.5,-,0.01,Snow,Light Snow,70,2012-11-25 16:23:00
9:52 AM,33.1,32.0,96,30.05,1.2,ENE,4.6,-,0.04,Snow,Light Snow,60,2012-11-25 16:52:00
10:30 AM,33.8,32.0,93,29.98,0.8,SSE,3.5,-,0.03,Snow,Light Snow,150,2012-11-25 17:30:00
10:34 AM,33.8,32.0,93,29.98,1.0,SSE,3.5,-,0.03,Snow,Light Snow,150,2012-11-25 17:34:00
10:52 AM,33.1,32.0,96,30.04,1.2,Calm,Calm,-,0.05,Snow,Light Snow,0,2012-11-25 17:52:00
11:06 AM,33.8,32.0,93,29.97,1.0,Calm,Calm,-,0.01,Snow,Light Snow,0,2012-11-25 18:06:00
11:25 AM,33.8,32.0,93,29.96,1.5,Calm,Calm,-,0.02,Snow,Light Snow,0,2012-11-25 18:25:00
11:35 AM,33.8,32.0,93,29.96,2.5,Calm,Calm,-,0.03,Snow,Light Snow,0,2012-11-25 18:35:00
11:52 AM,33.1,32.0,96,30.01,2.5,ENE,3.5,-,0.04,Snow,Light Snow,60,2012-11-25 18:52:00
12:06 PM,33.8,32.0,93,29.94,3.0,ENE,4.6,-,0.01,Snow,Light Snow,60,2012-11-25 19:06:00
12:33 PM,33.8,32.0,93,29.93,2.5,ENE,5.8,-,0.02,Snow,Light Snow,70,2012-11-25 19:33:00
12:42 PM,33.8,32.0,93,29.93,4.0,ENE,3.5,-,0.03,Snow,Light Snow,60,2012-11-25 19:42:00
12:52 PM,34.0,32.0,92,29.99,3.0,ENE,3.5,-,0.03,Snow,Light Snow,70,2012-11-25 19:52:00
12:59 PM,33.8,32.0,93,29.93,1.8,ENE,4.6,-,0.01,Snow,Light Snow,70,2012-11-25 19:59:00
1:16 PM,33.8,32.0,93,29.94,0.8,NE,4.6,-,0.02,Snow,Light Snow,50,2012-11-25 20:16:00
1:27 PM,33.8,32.0,93,29.93,1.0,ENE,4.6,-,0.02,Snow,Light Snow,60,2012-11-25 20:27:00
1:36 PM,33.8,32.0,93,29.93,1.5,ENE,4.6,-,0.03,Snow,Light Snow,60,2012-11-25 20:36:00
1:49 PM,33.8,32.0,93,29.93,0.8,ENE,4.6,-,0.04,Snow,Light Snow,70,2012-11-25 20:49:00
1:52 PM,33.1,30.9,92,30.00,0.8,East,4.6,-,0.04,Snow,Light Snow,80,2012-11-25 20:52:00
2:48 PM,32.0,30.2,93,29.95,1.0,ENE,5.8,-,0.03,Snow,Light Snow,60,2012-11-25 21:48:00
2:49 PM,32.0,30.9,96,30.01,1.0,ENE,5.8,-,0.03,Snow,Light Snow,60,2012-11-25 21:49:00
3:31 PM,33.8,30.2,87,29.95,2.5,ENE,5.8,-,0.03,Snow,Light Snow,60,2012-11-25 22:31:00
3:39 PM,33.8,30.2,87,29.95,1.8,NE,5.8,-,0.03,Snow,Light Snow,50,2012-11-25 22:39:00
3:52 PM,33.1,30.9,92,30.02,1.5,NE,8.1,-,0.03,Snow,Light Snow,40,2012-11-25 22:52:00
3:59 PM,33.8,30.2,87,29.96,1.2,NE,8.1,-,0.01,Snow,Light Snow,40,2012-11-25 22:59:00
4:15 PM,33.8,30.2,87,29.97,2.5,NE,9.2,-,0.01,Snow,Light Snow,50,2012-11-25 23:15:00
4:22 PM,33.8,30.2,87,29.97,4.0,NE,8.1,-,0.01,Snow,Light Snow,50,2012-11-25 23:22:00
4:36 PM,33.8,30.2,87,29.98,3.0,ENE,8.1,-,0.01,Snow,Light Snow,60,2012-11-25 23:36:00
4:45 PM,32.0,30.2,93,29.98,2.5,ENE,8.1,-,0.01,Snow,Light Snow,60,2012-11-25 23:45:00
4:52 PM,32.0,30.9,96,30.05,2.5,ENE,9.2,-,0.01,Snow,Light Snow,60,2012-11-25 23:52:00
5:03 PM,32.0,30.2,93,29.99,4.0,ENE,8.1,-,0.01,Snow,Light Snow,70,2012-11-26 00:03:00
5:24 PM,32.0,30.2,93,30.00,3.0,ENE,8.1,-,0.01,Snow,Light Snow,70,2012-11-26 00:24:00
5:34 PM,32.0,30.2,93,30.01,2.0,ENE,9.2,-,0.01,Snow,Light Snow,70,2012-11-26 00:34:00
5:52 PM,32.0,30.0,92,30.09,2.5,ENE,6.9,-,0.01,Snow,Light Snow,70,2012-11-26 00:52:00
5:59 PM,32.0,30.2,93,30.03,3.0,ENE,5.8,-,0.00,Snow,Light Snow,70,2012-11-26 00:59:00
6:52 PM,30.9,30.0,96,30.12,2.5,ENE,10.4,-,0.01,Snow,Light Snow,60,2012-11-26 01:52:00
7:02 PM,30.2,30.2,100,30.04,3.0,ENE,8.1,-,0.00,Snow,Light Snow,60,2012-11-26 02:02:00
7:09 PM,30.2,30.2,100,30.05,4.0,ENE,10.4,-,0.00,Snow,Light Snow,60,2012-11-26 02:09:00
7:18 PM,30.2,28.4,93,30.05,4.0,ENE,9.2,-,0.00,Snow,Light Snow,70,2012-11-26 02:18:00
7:52 PM,30.0,28.0,92,30.14,8.0,ENE,12.7,-,0.00,Snow,Light Snow,70,2012-11-26 02:52:00
8:09 PM,30.2,26.6,86,30.06,7.0,ENE,13.8,-,0.00,Snow,Light Snow,60,2012-11-26 03:09:00
8:22 PM,30.2,26.6,86,30.07,6.0,ENE,9.2,18.4,0.00,Snow,Light Snow,70,2012-11-26 03:22:00
8:52 PM,28.9,27.0,92,30.18,1.8,ENE,9.2,-,0.00,Snow,Light Snow,60,2012-11-26 03:52:00
9:18 PM,28.4,26.6,93,30.10,1.0,NE,5.8,-,0.00,Snow,Light Snow,50,2012-11-26 04:18:00
9:48 PM,28.4,26.6,93,30.11,1.2,NE,8.1,-,0.00,Snow,Light Snow,40,2012-11-26 04:48:00
9:52 PM,28.9,27.0,92,30.20,1.0,NE,8.1,-,0.00,Snow,Light Snow,40,2012-11-26 04:52:00
10:52 PM,28.9,27.0,92,30.23,1.2,NE,8.1,-,0.00,Snow,Light Snow,50,2012-11-26 05:52:00
11:52 PM,28.0,27.0,96,30.25,1.2,East,6.9,-,0.00,Snow,Light Snow,80,2012-11-26 06:52:00